• In Uzbekistan
  • List of Countries
  • For 7 days
  • Water Temperature
  • Weather Map
  • Weather Widgets
  • user-avatar
    Login

    Hourly Weather Sherpur

    Today, 9 April, Thursday

    Time Temperature Precipitation Wind Pressure Humidity
    00:00 +13°C° 0 mm 2 mps 610 mmHg 62%
    01:00 +13°C° 0 mm 1 mps 610 mmHg 64%
    02:00 +12°C° 0 mm 1 mps 610 mmHg 66%
    03:00 +12°C° 0 mm 1 mps 609 mmHg 68%
    04:00 +12°C° 0 mm 1 mps 609 mmHg 69%
    05:00 +11°C° 0 mm 1 mps 609 mmHg 69%
    06:00 +12°C° 0 mm 1 mps 609 mmHg 67%
    07:00 +12°C° 0 mm 1 mps 610 mmHg 66%
    08:00 +12°C° 0 mm 1 mps 610 mmHg 64%
    09:00 +13°C° 0.1 mm 1 mps 610 mmHg 63%
    10:00 +14°C° 0.1 mm 1 mps 611 mmHg 61%
    11:00 +15°C° 0 mm 1 mps 611 mmHg 57%
    12:00 +16°C° 0.4 mm 1 mps 611 mmHg 54%
    13:00 +16°C° 0.4 mm 1 mps 611 mmHg 50%
    14:00 +18°C° 0.4 mm 1 mps 611 mmHg 46%
    15:00 +18°C° 0.2 mm 1 mps 611 mmHg 45%
    16:00 +17°C° 0.2 mm 2 mps 611 mmHg 44%
    17:00 +16°C° 0 mm 1 mps 611 mmHg 50%
    18:00 +16°C° 0.2 mm 1 mps 611 mmHg 52%
    19:00 +15°C° 0.2 mm 1 mps 611 mmHg 54%
    20:00 +14°C° 0.2 mm 1 mps 611 mmHg 56%
    21:00 +14°C° 0 mm 1 mps 611 mmHg 56%
    22:00 +13°C° 0 mm 1 mps 611 mmHg 56%
    23:00 +13°C° 0 mm 1 mps 611 mmHg 56%

    Tomorrow, 10 April, Friday

    Time Temperature Precipitation Wind Pressure Humidity
    00:00 +12°C° 0 mm 1 mps 610 mmHg 57%
    01:00 +12°C° 0 mm 1 mps 609 mmHg 57%
    02:00 +11°C° 0 mm 1 mps 609 mmHg 58%
    03:00 +11°C° 0 mm 1 mps 609 mmHg 61%
    04:00 +9°C° 0 mm 0 mps 608 mmHg 64%
    05:00 +9°C° 0 mm 0 mps 608 mmHg 66%
    06:00 +9°C° 0 mm 0 mps 609 mmHg 63%
    07:00 +11°C° 0 mm 1 mps 610 mmHg 59%
    08:00 +12°C° 0 mm 1 mps 610 mmHg 55%
    09:00 +13°C° 0 mm 1 mps 611 mmHg 51%
    10:00 +14°C° 0 mm 1 mps 611 mmHg 46%
    11:00 +15°C° 0 mm 1 mps 612 mmHg 42%
    12:00 +16°C° 0 mm 1 mps 612 mmHg 39%
    13:00 +18°C° 0 mm 1 mps 612 mmHg 37%
    14:00 +19°C° 0 mm 1 mps 612 mmHg 34%
    15:00 +19°C° 0 mm 1 mps 612 mmHg 34%
    16:00 +18°C° 0 mm 2 mps 612 mmHg 33%
    17:00 +19°C° 0 mm 2 mps 612 mmHg 33%
    18:00 +18°C° 0 mm 2 mps 612 mmHg 38%
    19:00 +18°C° 0 mm 1 mps 612 mmHg 43%
    20:00 +16°C° 0 mm 1 mps 612 mmHg 48%
    21:00 +16°C° 0 mm 1 mps 612 mmHg 51%
    22:00 +15°C° 0 mm 1 mps 613 mmHg 54%
    23:00 +15°C° 0 mm 1 mps 613 mmHg 58%

    Day after tomorrow, 11 April, Saturday

    Time Temperature Precipitation Wind Pressure Humidity
    00:00 +15°C° 0 mm 1 mps 612 mmHg 61%
    01:00 +13°C° 0 mm 0 mps 612 mmHg 64%
    02:00 +12°C° 0 mm 0 mps 611 mmHg 67%
    03:00 +12°C° 0 mm 0 mps 611 mmHg 66%
    04:00 +12°C° 0 mm 0 mps 611 mmHg 66%
    05:00 +12°C° 0 mm 0 mps 611 mmHg 66%
    06:00 +13°C° 0 mm 0 mps 611 mmHg 61%
    07:00 +13°C° 0 mm 0 mps 612 mmHg 56%
    08:00 +14°C° 0 mm 0 mps 613 mmHg 51%
    09:00 +15°C° 0 mm 0 mps 613 mmHg 48%
    10:00 +18°C° 0 mm 1 mps 613 mmHg 45%
    11:00 +19°C° 0 mm 1 mps 613 mmHg 42%
    12:00 +20°C° 0 mm 1 mps 613 mmHg 40%
    13:00 +21°C° 0 mm 1 mps 613 mmHg 39%
    14:00 +21°C° 0 mm 1 mps 613 mmHg 37%
    15:00 +21°C° 0 mm 1 mps 613 mmHg 38%
    16:00 +21°C° 0 mm 1 mps 613 mmHg 38%
    17:00 +20°C° 0 mm 2 mps 612 mmHg 39%
    18:00 +21°C° 0 mm 1 mps 612 mmHg 43%
    19:00 +20°C° 0 mm 1 mps 613 mmHg 48%
    20:00 +19°C° 0 mm 1 mps 613 mmHg 52%
    21:00 +19°C° 0 mm 1 mps 613 mmHg 54%
    22:00 +18°C° 0 mm 1 mps 613 mmHg 56%
    23:00 +15°C° 0 mm 0 mps 613 mmHg 58%

    12 April, Sunday

    Time Temperature Precipitation Wind Pressure Humidity
    00:00 +15°C° 0 mm 0 mps 612 mmHg 59%
    01:00 +14°C° 0 mm 0 mps 612 mmHg 60%
    02:00 +14°C° 0 mm 0 mps 611 mmHg 61%
    03:00 +13°C° 0 mm 0 mps 611 mmHg 62%
    04:00 +13°C° 0 mm 0 mps 610 mmHg 63%
    05:00 +12°C° 0 mm 0 mps 610 mmHg 63%
    06:00 +14°C° 0 mm 0 mps 611 mmHg 58%
    07:00 +15°C° 0 mm 0 mps 612 mmHg 52%
    08:00 +16°C° 0 mm 0 mps 612 mmHg 46%
    09:00 +19°C° 0 mm 1 mps 613 mmHg 43%
    10:00 +20°C° 0 mm 1 mps 613 mmHg 41%
    11:00 +21°C° 0 mm 1 mps 613 mmHg 38%
    12:00 +21°C° 0 mm 2 mps 613 mmHg 36%
    13:00 +23°C° 0 mm 2 mps 613 mmHg 33%
    14:00 +24°C° 0 mm 2 mps 613 mmHg 31%
    15:00 +24°C° 0.1 mm 2 mps 612 mmHg 32%
    16:00 +24°C° 0.1 mm 3 mps 612 mmHg 32%
    17:00 +22°C° 0.1 mm 3 mps 611 mmHg 33%
    18:00 +21°C° 0.1 mm 2 mps 611 mmHg 41%
    19:00 +20°C° 0.1 mm 2 mps 611 mmHg 48%
    20:00 +18°C° 0.1 mm 2 mps 611 mmHg 56%
    21:00 +17°C° 0.3 mm 2 mps 611 mmHg 60%
    22:00 +16°C° 0.3 mm 1 mps 611 mmHg 64%
    23:00 +16°C° 0.3 mm 1 mps 611 mmHg 69%

    13 April, Monday

    Time Temperature Precipitation Wind Pressure Humidity
    00:00 +15°C° 0.5 mm 1 mps 610 mmHg 70%
    01:00 +15°C° 0.5 mm 1 mps 610 mmHg 72%
    02:00 +15°C° 0.5 mm 1 mps 610 mmHg 74%
    03:00 +13°C° 0.1 mm 0 mps 609 mmHg 75%
    04:00 +13°C° 0.1 mm 0 mps 609 mmHg 77%
    05:00 +13°C° 0.1 mm 0 mps 609 mmHg 78%
    06:00 +13°C° 0 mm 0 mps 609 mmHg 72%
    07:00 +14°C° 0 mm 0 mps 610 mmHg 67%
    08:00 +15°C° 0 mm 0 mps 610 mmHg 61%
    09:00 +16°C° 0.1 mm 0 mps 611 mmHg 57%
    10:00 +19°C° 0.1 mm 1 mps 611 mmHg 54%
    11:00 +20°C° 0.1 mm 1 mps 611 mmHg 50%
    12:00 +21°C° 0.3 mm 1 mps 611 mmHg 45%
    13:00 +22°C° 0.3 mm 1 mps 612 mmHg 41%
    14:00 +23°C° 0.3 mm 1 mps 612 mmHg 36%
    15:00 +23°C° 0.2 mm 2 mps 611 mmHg 37%
    16:00 +23°C° 0.2 mm 2 mps 611 mmHg 38%
    17:00 +22°C° 0.2 mm 3 mps 611 mmHg 39%
    18:00 +21°C° 0.2 mm 3 mps 611 mmHg 44%
    19:00 +19°C° 0.2 mm 2 mps 610 mmHg 50%
    20:00 +18°C° 0.2 mm 2 mps 610 mmHg 56%
    21:00 +17°C° 1 mm 2 mps 610 mmHg 61%
    22:00 +16°C° 1 mm 2 mps 610 mmHg 67%
    23:00 +15°C° 1 mm 2 mps 610 mmHg 73%

    14 April, Tuesday

    Time Temperature Precipitation Wind Pressure Humidity
    00:00 +14°C° 0.7 mm 1 mps 609 mmHg 76%
    01:00 +14°C° 0.7 mm 1 mps 608 mmHg 78%
    02:00 +13°C° 0.7 mm 1 mps 608 mmHg 80%
    03:00 +13°C° 0.4 mm 1 mps 608 mmHg 81%
    04:00 +13°C° 0.4 mm 1 mps 607 mmHg 82%
    05:00 +12°C° 0.4 mm 0 mps 607 mmHg 83%
    06:00 +13°C° 0.4 mm 1 mps 608 mmHg 80%
    07:00 +14°C° 0.4 mm 1 mps 608 mmHg 77%
    08:00 +14°C° 0.4 mm 1 mps 609 mmHg 74%
    09:00 +15°C° 0.5 mm 2 mps 609 mmHg 67%
    10:00 +17°C° 0.5 mm 3 mps 610 mmHg 60%
    11:00 +18°C° 0.5 mm 4 mps 611 mmHg 53%
    12:00 +18°C° 0.3 mm 4 mps 611 mmHg 53%
    13:00 +18°C° 0.3 mm 4 mps 611 mmHg 53%
    14:00 +18°C° 0.3 mm 4 mps 611 mmHg 53%
    15:00 +18°C° 1.4 mm 4 mps 610 mmHg 56%
    16:00 +17°C° 1.4 mm 3 mps 610 mmHg 60%
    17:00 +16°C° 1.4 mm 3 mps 609 mmHg 63%
    18:00 +15°C° 1.5 mm 2 mps 609 mmHg 69%
    19:00 +14°C° 1.5 mm 2 mps 609 mmHg 74%
    20:00 +13°C° 1.5 mm 2 mps 609 mmHg 79%
    21:00 +12°C° 0.3 mm 2 mps 609 mmHg 77%
    22:00 +12°C° 0.3 mm 1 mps 609 mmHg 75%
    23:00 +12°C° 0.3 mm 1 mps 609 mmHg 73%
    Show more